Hayward, WI

12:53 AM CDT on June 25, 2017 (GMT -0500)
Sawyer County

Weather History for KHYR - April, 2012

Change the Weather History Date:

Monday, April 23, 2012

  Actual Average Record
Temperature  
Mean Temperature 44 °F -  
Max Temperature 61 °F 59 °F 77 °F (2008)
Min Temperature 26 °F 29 °F 21 °F (2003)
Degree Days  
Heating Degree Days 22    
Moisture  
Dew Point 28 °F    
Average Humidity 62    
Maximum Humidity 92    
Minimum Humidity 26    
Precipitation  
Precipitation 0.00 in - - ()
Sea Level Pressure  
Sea Level Pressure 30.09 in    
Wind  
Wind Speed 1 mph (NE)    
Max Wind Speed 8 mph    
Max Gust Speed -    
Visibility 10 miles    
Events      
Averages and records for this station are not official NWS values.
T = Trace of Precipitation, MM = Missing Value Source: NWS Daily Summary

Daily Weather History Graph

Daily Weather History Graph

Search for Another Location

Airport or City:

Trip Planner

Search our weather history database for the weather conditions in past years. The results will help you decide how hot, cold, wet, or windy it might be!

Date:

Astronomy

Apr. 23, 2012 Rise Set
Actual Time 6:04 AM CDT 8:04 PM CDT
Civil Twilight 5:32 AM CDT 8:36 PM CDT
Nautical Twilight 4:52 AM CDT 9:16 PM CDT
Astronomical Twilight 4:09 AM CDT 10:00 PM CDT
Moon 7:08 AM CDT (4/23) 10:42 PM CDT (4/23)
Length of Visible Light 15h 03m
Length of Day
13h 59m
Waxing Crescent, 5% of the Moon is Illuminated
Apr 23
Waxing Crescent
Apr 29
First Quarter
May 5
Full
May 12
Last Quarter
May 20
New

Hourly Weather History & Observations

Time (CDT) Temp. Windchill Dew Point Humidity Pressure Visibility Wind Dir Wind Speed Gust Speed Precip Events Conditions
12:53 AM 30.9 °F - 28.9 °F 92% 30.23 in 10.0 mi Calm Calm - N/A   Clear
1:53 AM 28.9 °F - 27.0 °F 92% 30.22 in 9.0 mi Calm Calm - N/A   Scattered Clouds
2:53 AM 28.0 °F - 25.0 °F 88% 30.21 in 10.0 mi Calm Calm - N/A   Clear
3:53 AM 27.0 °F - 24.1 °F 89% 30.20 in 10.0 mi Calm Calm - N/A   Clear
4:53 AM 27.0 °F - 21.9 °F 81% 30.20 in 10.0 mi Calm Calm - N/A   Clear
5:35 AM 26.6 °F - 21.2 °F 80% 30.17 in 10.0 mi Calm Calm - N/A   Partly Cloudy
5:53 AM 26.1 °F - 21.9 °F 84% 30.20 in 10.0 mi Calm Calm - N/A   Partly Cloudy
6:53 AM 27.0 °F 18.7 °F 24.1 °F 89% 30.20 in 10.0 mi ENE 8.1 mph - N/A   Clear
7:53 AM 34.0 °F - 30.9 °F 89% 30.20 in 10.0 mi Calm Calm - N/A   Clear
8:53 AM 41.0 °F - 34.0 °F 76% 30.19 in 10.0 mi Calm Calm - N/A   Clear
9:53 AM 46.9 °F - 33.1 °F 59% 30.17 in 10.0 mi Variable 3.5 mph - N/A   Partly Cloudy
10:53 AM 48.9 °F - 32.0 °F 52% 30.16 in 10.0 mi Calm Calm - N/A   Clear
11:53 AM 54.0 °F - 30.9 °F 41% 30.12 in 10.0 mi Variable 3.5 mph - N/A   Clear
12:53 PM 55.9 °F - 28.9 °F 36% 30.09 in 10.0 mi Variable 4.6 mph - N/A   Clear
2:53 PM 61.0 °F - 28.9 °F 30% 30.03 in 10.0 mi Variable 6.9 mph - N/A   Partly Cloudy
3:53 PM 61.0 °F - 28.0 °F 29% 30.00 in 10.0 mi NE 5.8 mph - N/A   Partly Cloudy
4:53 PM 60.1 °F - 25.0 °F 26% 29.99 in 10.0 mi NNE 4.6 mph - N/A   Clear
5:53 PM 59.0 °F - 26.1 °F 28% 29.98 in 10.0 mi Variable 6.9 mph - N/A   Clear
6:53 PM 57.9 °F - 26.1 °F 30% 29.96 in 10.0 mi Calm Calm - N/A   Clear
7:53 PM 51.1 °F - 28.0 °F 41% 29.94 in 10.0 mi Calm Calm - N/A   Clear
8:53 PM 46.0 °F - 27.0 °F 47% 29.93 in 10.0 mi Calm Calm - N/A   Clear
9:53 PM 42.1 °F - 30.9 °F 65% 29.93 in 10.0 mi Calm Calm - N/A   Partly Cloudy
10:53 PM 39.9 °F - 30.0 °F 68% 29.91 in 10.0 mi Calm Calm - N/A   Mostly Cloudy
11:53 PM 36.0 °F - 28.9 °F 76% 29.90 in 10.0 mi Calm Calm - N/A   Partly Cloudy